Location: D�rnast
(49.6426°N, 11.9755°E)
Time: 12:37:59
(UTC+00:00)

USA 229 - Pass Details

Date: 24 January 2021
Orbit: 964 x 1248 km, 63.4° (Epoch: 26 February)

Event Time Altitude Azimuth Distance (km) Brightness Sun altitude
Rises 18:31:59 0° 316° (NW) 3,953 7.3 -25.2°
Reaches altitude 10° 18:34:38 10° 313° (NW) 3,030 6.6 -25.7°
Maximum altitude 18:41:47 61° 236° (SW) 1,334 4.3 -26.8°
Enters shadow 18:47:29 19° 162° (SSE) 2,579 5.5 -27.7°
